SCP
0 0 0 0 0 0 1 1 1 1 0 0 0 0 0 0 0 0 0 0 0 0 0 0 0 0 0 0 0 0 0 0 0 0 0 0 0 0 0 0 0 0 0
0 0 0 0 0 0 1 1 1 1 0 0 0 0 0 0 0 0 0 0 0 0 0 0 0 0 0 0 0 0 0 0 0 0 0 0 0 0 0 0 0 0 0
0 0 0 0 0 0 1 1 1 1 0 0 0 0 0 0 0 0 0 0 0 0 0 0 0 0 0 0 0 0 0 0 0 0 0 0 0 0 0 0 0 0 0
0 0 0 0 1 1 1 1 1 1 0 0 0 0 0 0 0 0 0 0 0 0 0 0 0 0 0 0 0 0 0 0 0 0 0 0 0 0 0 0 0 0 0
0 0 0 0 0 0 0 1 1 1 0 0 0 0 0 0 0 0 0 0 0 0 0 0 0 0 0 0 0 0 0 0 0 0 0 0 0 0 0 0 0 0 0
0 0 0 0 0 0 0 0 0 1 1 1 0 0 0 0 0 0 0 0 0 0 0 0 0 0 0 0 0 0 0 0 0 0 0 0 0 0 0 0 0 0 0
0 0 0 0 0 0 0 0 0 0 1 1 1 0 0 0 0 0 0 0 0 0 0 0 0 0 0 0 0 0 0 0 0 0 0 0 0 0 0 0 0 0 0
0 0 0 0 0 0 0 0 0 0 1 1 1 1 0 0 0 0 0 0 0 0 0 0 0 0 0 0 0 0 0 0 0 0 0 0 0 0 0 0 0 0 0
0 0 0 0 0 0 0 0 0 0 0 1 1 1 0 0 0 0 0 0 0 0 0 0 0 0 0 0 0 0 0 0 0 0 0 0 0 0 0 0 0 0 0
0 0 0 0 0 0 0 0 0 0 0 0 0 0 0 0 0 0 0 0 0 0 0 0 0 0 0 0 0 0 0 0 0 0 0 0 0 0 0 0 0 0 0
0 0 0 0 0 0 0 0 0 0 0 0 0 0 0 0 0 0 0 0 0 0 0 0 0 0 0 0 0 0 0 0 0 0 0 0 0 0 0 0 0 0 0
0 0 0 0 0 0 0 0 0 0 0 0 0 0 0 0 0 0 0 0 0 0 0 0 0 0 0 0 0 0 0 0 0 0 0 0 0 0 0 0 0 0 0
0 0 0 0 0 0 0 0 0 0 0 0 0 0 0 0 0 0 0 0 0 0 0 0 0 0 0 0 0 0 0 0 0 0 0 0 0 0 0 0 0 0 0
0 0 0 0 0 0 0 0 0 0 0 0 0 0 0 0 0 0 0 0 0 0 0 0 0 0 0 0 0 0 0 0 0 0 0 0 0 0 0 0 0 0 0
0 0 0 0 0 0 0 0 0 0 0 0 0 0 0 0 0 0 0 0 0 0 0 0 0 0 0 0 0 0 0 0 0 0 0 0 0 0 0 0 0 0 0
0 0 0 0 0 0 0 0 0 0 0 0 0 0 0 0 0 0 0 0 0 0 0 0 0 0 0 0 0 0 0 0 0 0 0 0 0 0 0 0 0 0 0
0 0 0 0 0 0 0 0 0 0 0 0 0 0 0 0 0 0 0 0 0 0 0 0 0 0 0 0 0 0 0 0 0 0 0 0 0 0 0 0 0 0 0
0 0 0 0 0 0 0 0 0 0 0 0 0 0 0 0 0 0 0 0 0 0 0 0 0 0 0 0 0 0 0 0 0 0 0 0 0 0 0 0 0 0 0
0 0 0 0 0 0 0 0 0 0 0 0 0 0 0 0 0 0 0 0 0 0 0 0 0 0 0 0 0 0 0 0 0 0 0 0 0 0 0 0 0 0 0
0 0 0 0 0 0 0 0 0 0 0 0 0 0 0 0 0 0 0 0 0 0 0 0 0 0 0 0 0 0 0 0 0 0 0 0 0 0 0 0 0 0 0
0 0 0 0 0 0 0 0 0 0 0 0 0 0 0 0 0 0 0 0 0 0 0 0 0 0 0 0 0 0 0 0 0 0 0 0 0 0 0 0 0 0 0
0 0 0 0 0 0 0 0 0 0 0 0 0 0 0 0 0 0 0 0 0 0 0 0 0 0 0 0 0 0 0 0 0 0 0 0 0 0 0 0 0 0 0
0 0 0 0 0 0 0 0 0 0 0 0 0 0 0 0 0 0 0 0 0 0 0 0 0 0 0 0 0 0 0 0 0 0 0 0 0 0 0 0 0 0 0
0 0 0 0 0 0 0 0 0 0 0 0 0 0 0 0 0 0 0 0 0 0 0 0 0 0 0 0 0 0 0 0 0 0 0 0 0 0 0 0 0 0 0
0 0 0 0 0 0 0 0 0 0 0 0 0 0 0 0 0 0 0 0 0 0 0 0 0 0 0 0 0 0 0 0 0 0 0 0 0 0 0 0 0 0 0
0 0 0 0 0 0 0 0 0 0 0 0 0 0 0 0 0 0 0 0 0 0 0 0 0 0 0 0 0 0 0 0 0 0 0 0 0 0 0 0 0 0 0
Wind_Speed
4 7 8 7 6 6 6 6 6 6 6 6 6 6 6 6 7 7 7 8 8 8 9 9 10 9 10 10 10 10 10 10 10 10 10 10 10 10 9 9 9 7 11
5 8 10 7 6 5 5 5 5 5 5 5 5 6 6 6 6 7 7 7 8 8 8 9 9 9 9 9 10 10 10 9 9 9 9 8 8 9 9 9 9 7 11
6 8 8 7 6 5 4 4 4 5 4 4 4 5 5 6 6 6 6 7 7 8 8 8 8 9 9 9 10 10 9 9 9 8 8 4 5 8 9 9 9 10 10
6 7 7 7 6 5 4 4 4 4 4 3 3 4 4 5 6 6 6 7 7 7 8 8 8 9 9 9 9 9 9 8 8 6 4 4 4 9 9 9 9 9 9
5 6 7 7 5 4 4 3 3 3 3 3 3 4 4 4 5 6 6 7 7 7 7 7 8 8 9 9 9 9 9 8 6 4 3 4 4 8 9 9 9 9 8
4 5 6 7 5 4 3 2 2 2 2 2 3 3 4 4 5 5 5 6 6 7 7 7 7 8 9 9 9 9 8 7 5 3 3 4 4 8 9 9 9 8 8
3 4 4 5 4 3 2 1 1 1 2 2 3 3 4 4 4 5 5 6 7 7 7 7 8 8 9 9 9 8 7 6 4 3 3 3 5 9 9 9 8 7 7
3 3 4 4 3 2 2 1 1 2 2 2 3 4 4 4 4 5 6 6 7 7 7 7 8 8 9 9 9 7 6 5 5 4 4 4 7 9 9 8 8 7 7
2 2 2 2 2 1 1 0 1 3 3 3 4 4 4 4 5 5 6 7 7 8 8 8 8 8 9 9 9 7 6 5 3 3 5 4 8 10 9 8 8 7 7
1 1 1 1 1 1 1 1 1 3 4 4 4 4 4 5 5 5 6 7 8 8 8 8 8 9 8 8 9 8 6 5 3 3 3 5 10 10 9 8 8 7 7
1 1 1 1 0 0 1 1 2 3 4 5 5 5 4 3 4 4 5 6 7 8 9 9 8 9 8 8 9 8 6 3 4 3 3 7 11 11 10 9 8 8 8
2 1 1 1 0 0 1 1 2 2 3 3 3 4 3 3 3 3 5 7 7 8 9 9 9 9 6 4 6 7 3 4 3 3 4 10 11 11 11 10 9 9 8
2 1 1 2 2 1 1 1 1 1 2 3 3 4 3 3 2 2 2 3 4 6 5 6 6 5 4 4 4 4 5 4 3 3 5 10 12 12 12 11 10 10 9
1 2 2 2 2 2 2 1 1 2 2 2 3 4 3 2 2 2 2 3 3 3 3 4 4 5 5 5 6 6 6 4 3 3 4 10 11 12 13 12 12 11 11
3 3 3 2 3 3 2 2 2 2 3 3 3 4 4 3 3 3 3 3 3 3 4 4 4 5 5 5 6 6 6 5 4 4 4 9 10 12 13 13 13 13 12
3 3 2 3 3 2 2 2 2 2 3 3 3 4 4 4 4 4 3 3 3 4 4 4 5 4 4 4 5 6 6 5 5 5 5 6 10 12 14 14 14 14 14
3 3 2 3 3 3 3 3 3 3 3 3 4 5 4 4 4 4 3 3 3 3 4 4 4 4 4 4 5 5 4 5 4 5 5 5 6 10 13 15 15 15 15
3 3 3 3 3 4 3 3 3 3 3 3 4 4 5 5 5 4 3 4 4 3 3 3 4 4 4 4 4 4 4 4 5 5 5 5 5 5 8 13 14 15 15
3 3 4 4 4 4 4 3 4 3 3 3 3 3 4 5 6 5 4 4 4 3 3 4 4 3 3 4 4 4 4 4 4 5 5 6 6 6 5 9 13 13 15
4 4 4 4 4 4 3 3 3 3 3 3 3 4 4 4 5 4 4 5 4 4 3 4 4 4 3 3 3 4 4 4 4 5 6 5 5 7 7 7 7 9 14
3 3 4 3 3 3 3 3 3 4 3 4 4 6 5 5 6 5 4 5 5 5 5 5 4 5 4 3 2 2 3 4 5 5 5 5 6 6 7 7 6 5 6
3 3 4 3 3 3 4 4 3 4 4 4 4 5 5 5 6 5 6 5 5 5 5 6 5 4 3 4 3 2 2 3 4 6 5 6 6 5 6 8 7 7 6
3 3 4 4 4 4 4 3 3 2 3 4 4 5 5 6 6 6 6 6 6 6 6 6 6 6 5 5 4 4 3 4 2 3 5 5 6 5 5 6 7 7 7
4 3 3 3 4 4 4 4 6 5 5 5 4 4 5 6 6 6 6 6 7 6 6 7 7 5 6 5 5 5 4 3 3 2 3 4 5 6 6 6 6 7 7
3 2 2 3 4 4 4 5 6 5 5 4 4 5 5 6 7 7 7 7 7 6 7 7 6 6 6 6 5 4 4 3 3 3 4 4 4 5 5 5 5 5 6
2 1 2 4 4 4 4 5 6 6 6 5 6 5 5 5 5 7 7 6 6 6 7 7 7 8 6 6 5 5 5 4 5 4 5 5 5 4 5 5 5 5 6
Wind_Direction
80 101 93 86 82 90 98 104 110 112 114 123 135 142 141 140 142 141 139 135 138 140 141 138 138 137 133 126 118 113 111 107 104 103 103 102 104 104 102 104 99 90 94
97 100 95 86 81 85 97 104 107 108 111 119 130 146 149 149 149 148 150 149 145 147 149 148 147 145 140 136 129 125 122 118 115 112 108 107 110 108 103 102 103 100 99
91 99 102 82 74 76 89 97 105 108 111 118 129 138 151 158 159 158 157 157 156 151 144 145 148 147 145 142 137 135 133 133 132 130 127 123 118 115 108 105 105 104 102
82 92 97 91 76 72 85 96 105 114 118 124 137 141 149 162 166 165 164 160 155 151 148 142 140 142 146 146 144 143 146 148 148 152 148 137 128 124 120 116 112 109 104
78 89 95 99 88 76 79 95 100 110 129 139 147 148 153 167 172 170 167 161 157 154 151 149 148 146 144 144 149 152 157 161 162 175 137 121 119 132 130 123 119 115 110
80 86 98 98 95 89 78 87 98 116 126 141 156 163 166 167 167 169 169 164 160 156 155 155 156 154 151 150 153 161 169 174 174 177 144 132 132 140 135 131 128 122 117
78 88 107 101 92 92 92 104 112 137 163 155 168 179 178 177 176 178 176 171 166 163 162 163 165 165 161 159 161 167 177 188 195 165 144 135 140 146 144 142 140 136 129
82 91 113 109 107 96 89 130 189 181 188 189 185 192 191 192 194 189 185 180 176 172 171 175 174 173 172 168 170 178 187 201 201 170 150 143 149 154 155 152 150 149 143
63 79 99 137 140 121 121 157 230 213 204 203 199 199 200 202 203 201 194 188 184 179 177 181 181 179 178 178 178 186 198 214 227 182 159 154 160 164 166 162 160 161 158
46 81 106 111 110 131 180 244 243 228 211 210 206 201 202 203 204 203 200 193 191 187 183 185 184 183 181 184 186 192 199 216 228 194 158 160 166 175 177 174 173 172 168
256 161 141 139 115 101 232 269 236 226 216 212 202 194 194 196 193 195 198 195 197 194 190 187 186 185 182 187 191 194 196 212 210 187 161 166 175 183 186 185 184 180 179
256 233 158 155 178 218 287 267 240 228 215 212 196 186 190 195 198 201 195 192 198 199 194 190 191 184 178 185 193 193 204 216 203 178 170 172 183 190 192 192 192 189 187
243 272 242 180 192 202 208 241 253 236 218 223 207 198 202 189 191 185 176 182 189 194 192 190 186 189 191 186 188 199 213 216 200 176 173 177 188 195 197 198 199 197 197
235 247 247 211 194 199 204 220 244 244 222 215 218 204 197 187 185 179 182 188 189 191 190 185 191 202 200 192 194 204 209 206 192 172 174 180 192 200 203 204 204 204 205
235 231 240 233 209 199 204 219 237 239 240 222 213 210 197 191 187 183 187 192 198 196 191 195 202 200 201 201 202 205 207 209 196 180 176 185 192 204 209 211 211 212 212
241 233 230 236 225 212 206 215 226 232 231 232 218 216 205 195 191 186 192 193 204 202 196 200 205 201 204 204 209 208 206 207 204 186 175 187 197 206 213 216 217 217 218
249 238 236 247 229 224 222 227 232 232 228 228 227 213 208 199 194 189 192 196 203 203 201 205 204 202 207 205 211 214 211 212 202 192 185 182 195 207 215 220 221 221 224
258 244 233 257 251 241 238 235 231 233 236 229 228 219 209 205 193 190 196 203 203 199 202 207 203 200 204 203 209 218 217 215 212 202 197 190 189 198 213 219 223 226 227
261 256 244 236 246 243 239 240 239 231 234 232 231 223 212 212 198 192 197 206 203 198 205 212 206 199 204 207 212 218 216 214 218 216 209 202 198 197 199 213 218 225 230
261 258 251 239 244 249 243 242 246 241 231 225 226 225 217 218 206 199 202 205 202 200 208 207 206 204 207 204 222 228 222 220 218 217 215 213 206 204 202 205 210 221 227
259 261 258 252 253 252 236 229 230 239 234 226 219 220 213 216 211 205 208 206 205 204 208 209 209 202 208 193 204 241 252 236 227 221 214 213 215 211 206 205 205 209 220
261 260 256 255 258 254 241 238 226 234 233 230 222 220 214 210 211 213 205 207 210 207 208 212 208 204 206 192 185 194 236 252 242 228 214 213 216 213 213 211 208 209 208
267 257 258 252 253 249 249 255 255 244 238 231 224 219 216 212 214 211 212 213 212 208 208 210 209 207 203 205 195 192 196 216 239 233 224 218 215 215 216 214 212 211 207
277 262 248 257 250 245 240 240 239 236 236 233 225 218 217 215 218 212 213 217 214 212 213 215 213 208 199 207 213 220 224 204 204 233 241 223 217 221 219 219 214 211 207
280 253 240 259 256 246 243 239 239 242 243 238 232 222 220 218 219 216 215 219 215 214 216 218 211 210 208 210 213 214 230 234 227 212 238 233 235 227 218 217 215 213 208
308 281 258 262 260 255 244 241 242 245 245 241 239 228 222 220 219 216 218 220 220 216 213 215 213 212 214 216 219 214 209 210 211 212 222 223 233 235 219 215 212 212 209